Weather History for Howell, MI

Change the Weather History Date:

Wednesday, November 13, 2013

  Actual Average Record
Temperature  
Mean Temperature 29 °F -  
Max Temperature 39 °F 46 °F 68 °F (1999)
Min Temperature 19 °F 32 °F 17 °F (1996)
Degree Days  
Heating Degree Days 36    
Moisture  
Dew Point 18 °F    
Average Humidity 65    
Maximum Humidity 93    
Minimum Humidity 33    
Precipitation  
Precipitation 0.00 in - - ()
Sea Level Pressure  
Sea Level Pressure 30.34 in    
Wind  
Wind Speed 8 mph (SW)    
Max Wind Speed 17 mph    
Max Gust Speed 30 mph    
Visibility 10 miles    
Events Snow    
Averages and records for this station are not official NWS values.
T = Trace of Precipitation, MM = Missing Value Source: NWS Daily Summary

Daily Weather History Graph

Daily Weather History Graph

Search for Another Location

Airport:

Trip Planner

Search our weather history database for the weather conditions in past years. The results will help you decide how hot, cold, wet, or windy it might be!

Date:

Astronomy

Nov. 13, 2013 Rise Set
Actual Time 7:25 AM EST 5:14 PM EST
Civil Twilight 6:54 AM EST 5:45 PM EST
Nautical Twilight 6:20 AM EST 6:19 PM EST
Astronomical Twilight 5:47 AM EST 6:52 PM EST
Moon 3:06 PM EST (11/13) 3:12 AM EST (11/13)
Length of Visible Light 10h 50m
Length of Day
9h 49m
Waxing Gibbous, 84% of the Moon is Illuminated
Nov 13
Waxing Gibbous
Nov 17
Full
Nov 25
Last Quarter
Dec 2
New
Dec 9
First Quarter

Hourly Weather History & Observations

Time (EST) Temp. Windchill Dew Point Humidity Pressure Visibility Wind Dir Wind Speed Gust Speed Precip Events Conditions
12:14 AM 22.1 °F - 17.8 °F 83% 30.51 in 10.0 mi Calm Calm - N/A   Clear
12:35 AM 21.9 °F 17.2 °F 17.6 °F 83% 30.50 in 10.0 mi SW 3.5 mph - N/A   Clear
12:54 AM 20.7 °F 14.2 °F 17.4 °F 87% 30.50 in 10.0 mi SW 4.6 mph - N/A   Clear
1:14 AM 20.7 °F 14.2 °F 17.1 °F 86% 30.50 in 10.0 mi SW 4.6 mph - N/A   Clear
1:35 AM 19.9 °F 14.9 °F 16.5 °F 87% 30.49 in 10.0 mi SSW 3.5 mph - N/A   Clear
1:54 AM 20.3 °F 15.4 °F 17.4 °F 89% 30.49 in 10.0 mi SW 3.5 mph - N/A   Clear
2:14 AM 19.8 °F 14.7 °F 16.7 °F 88% 30.49 in 10.0 mi SW 3.5 mph - N/A   Clear
2:35 AM 19.9 °F 14.9 °F 17.1 °F 89% 30.49 in 10.0 mi SW 3.5 mph - N/A   Clear
2:54 AM 19.9 °F - 17.1 °F 89% 30.49 in 10.0 mi Calm Calm - N/A   Clear
3:15 AM 19.6 °F 14.5 °F 16.7 °F 89% 30.49 in 10.0 mi SW 3.5 mph - N/A   Clear
3:34 AM 19.4 °F 14.3 °F 16.9 °F 90% 30.48 in 10.0 mi SSW 3.5 mph - N/A   Clear
3:54 AM 20.1 °F 13.6 °F 17.4 °F 89% 30.47 in 10.0 mi SSW 4.6 mph - N/A   Clear
4:15 AM 20.1 °F 13.6 °F 17.4 °F 89% 30.47 in 10.0 mi SSW 4.6 mph - N/A   Clear
4:35 AM 19.8 °F 13.2 °F 17.1 °F 89% 30.47 in 10.0 mi SW 4.6 mph - N/A   Clear
4:54 AM 20.1 °F 15.2 °F 17.6 °F 90% 30.46 in 10.0 mi SSW 3.5 mph - N/A   Clear
5:15 AM 20.7 °F 14.2 °F 18.1 °F 90% 30.46 in 10.0 mi SSW 4.6 mph - N/A   Clear
5:35 AM 20.3 °F 13.8 °F 18.1 °F 91% 30.46 in 10.0 mi SW 4.6 mph - N/A   Clear
5:54 AM 20.7 °F 13.0 °F 18.5 °F 91% 30.45 in 10.0 mi SSW 5.8 mph - N/A   Clear
6:15 AM 21.2 °F 13.6 °F 18.9 °F 91% 30.45 in 10.0 mi SSW 5.8 mph - N/A   Clear
6:35 AM 20.8 °F 16.0 °F 18.7 °F 91% 30.45 in 10.0 mi SW 3.5 mph - N/A   Clear
6:54 AM 20.8 °F 16.0 °F 18.9 °F 92% 30.45 in 10.0 mi SSW 3.5 mph - N/A   Clear
7:15 AM 21.2 °F 16.4 °F 19.2 °F 92% 30.45 in 10.0 mi SSW 3.5 mph - N/A   Clear
7:34 AM 21.2 °F 16.4 °F 19.4 °F 93% 30.45 in 10.0 mi SSW 3.5 mph - N/A   Clear
7:54 AM 22.6 °F 16.5 °F 20.8 °F 93% 30.45 in 10.0 mi SSW 4.6 mph - N/A   Clear
8:15 AM 25.2 °F 17.3 °F 22.6 °F 90% 30.45 in 10.0 mi SW 6.9 mph - N/A   Clear
8:34 AM 26.4 °F 16.6 °F 23.4 °F 88% 30.45 in 10.0 mi SW 10.4 mph - N/A   Clear
8:54 AM 27.5 °F 18.0 °F 24.4 °F 88% 30.44 in 10.0 mi SW 10.4 mph - N/A   Clear
9:15 AM 28.8 °F 19.5 °F 24.8 °F 85% 30.44 in 10.0 mi SW 10.4 mph - N/A   Clear
9:34 AM 29.8 °F 20.9 °F 25.3 °F 83% 30.43 in 10.0 mi SW 10.4 mph - N/A   Clear
9:54 AM 30.9 °F 21.2 °F 25.7 °F 81% 30.42 in 10.0 mi SW 12.7 mph - N/A   Clear
10:15 AM 32.2 °F 23.2 °F 25.9 °F 78% 30.42 in 10.0 mi WSW 11.5 mph 16.1 mph N/A   Clear
10:34 AM 34.0 °F 23.4 °F 25.9 °F 72% 30.41 in 10.0 mi SW 17.3 mph - N/A   Clear
10:54 AM 34.7 °F 25.9 °F 24.8 °F 67% 30.41 in 10.0 mi SW 12.7 mph 21.9 mph N/A   Clear
11:15 AM 35.6 °F 25.5 °F 23.9 °F 62% 30.40 in 10.0 mi SW 17.3 mph 20.7 mph N/A   Clear
11:34 AM 36.7 °F 28.0 °F 22.3 °F 56% 30.39 in 7.0 mi WSW 13.8 mph 23.0 mph N/A Snow Light Snow
11:54 AM 37.0 °F 28.9 °F 21.9 °F 54% 30.38 in 10.0 mi WSW 12.7 mph 19.6 mph N/A   Clear
12:15 PM 37.2 °F 27.9 °F 20.1 °F 50% 30.37 in 10.0 mi SW 16.1 mph 21.9 mph N/A   Clear
12:34 PM 37.8 °F 28.3 °F 19.9 °F 49% 30.36 in 10.0 mi WSW 17.3 mph - N/A   Clear
12:54 PM 38.3 °F 29.7 °F 18.9 °F 46% 30.35 in 10.0 mi WSW 15.0 mph 21.9 mph N/A   Clear
1:15 PM 38.8 °F 30.4 °F 18.5 °F 44% 30.34 in 10.0 mi SW 15.0 mph 24.2 mph N/A   Clear
1:34 PM 39.2 °F 30.2 °F 16.9 °F 40% 30.33 in 10.0 mi SW 17.3 mph - N/A   Clear
1:55 PM 39.4 °F 30.7 °F 16.7 °F 40% 30.32 in 10.0 mi WSW 16.1 mph 19.6 mph N/A   Clear
2:15 PM 39.4 °F 31.1 °F 16.2 °F 39% 30.31 in 10.0 mi SW 15.0 mph 25.3 mph N/A   Clear
2:34 PM 39.6 °F 31.0 °F 16.2 °F 39% 30.31 in 10.0 mi WSW 16.1 mph 19.6 mph N/A   Clear
2:55 PM 39.4 °F 30.4 °F 14.9 °F 37% 30.29 in 10.0 mi SW 17.3 mph 29.9 mph N/A   Clear
3:15 PM 38.7 °F 29.5 °F 14.0 °F 37% 30.29 in 10.0 mi SW 17.3 mph 24.2 mph N/A   Clear
3:34 PM 38.5 °F 29.6 °F 13.1 °F 35% 30.28 in 10.0 mi SW 16.1 mph 23.0 mph N/A   Clear
3:55 PM 37.8 °F 28.3 °F 10.8 °F 33% 30.28 in 10.0 mi SW 17.3 mph 25.3 mph N/A   Clear
4:15 PM 37.0 °F 29.3 °F 10.2 °F 33% 30.26 in 10.0 mi SW 11.5 mph 23.0 mph N/A   Clear
4:34 PM 36.7 °F 28.9 °F 12.4 °F 37% 30.26 in 10.0 mi SSW 11.5 mph 21.9 mph N/A   Clear
4:55 PM 35.8 °F 28.3 °F 12.2 °F 38% 30.25 in 10.0 mi SSW 10.4 mph - N/A   Clear
5:15 PM 34.9 °F 24.9 °F 13.3 °F 41% 30.24 in 10.0 mi SSW 16.1 mph - N/A   Clear
5:34 PM 34.7 °F 26.4 °F 13.5 °F 42% 30.24 in 10.0 mi SSW 11.5 mph - N/A   Clear
5:55 PM 34.3 °F 25.0 °F 14.4 °F 44% 30.23 in 10.0 mi SSW 13.8 mph 20.7 mph N/A   Clear
6:15 PM 34.3 °F 25.0 °F 14.4 °F 44% 30.23 in 10.0 mi SW 13.8 mph 20.7 mph N/A   Clear
6:34 PM 34.0 °F 24.6 °F 14.5 °F 45% 30.22 in 10.0 mi SSW 13.8 mph 20.7 mph N/A   Clear
6:55 PM 33.8 °F 23.9 °F 14.9 °F 46% 30.21 in 10.0 mi SSW 15.0 mph 20.7 mph N/A   Clear
7:15 PM 33.8 °F 23.9 °F 15.4 °F 47% 30.20 in 10.0 mi SSW 15.0 mph 21.9 mph N/A   Clear
7:34 PM 33.8 °F 24.3 °F 15.4 °F 47% 30.19 in 10.0 mi SW 13.8 mph 19.6 mph N/A   Clear
7:55 PM 33.4 °F 24.8 °F 15.4 °F 48% 30.19 in 10.0 mi SSW 11.5 mph 21.9 mph N/A   Clear
8:14 PM 33.1 °F 23.4 °F 15.8 °F 49% 30.18 in 10.0 mi SSW 13.8 mph 19.6 mph N/A   Clear
8:34 PM 32.9 °F 22.8 °F 16.5 °F 51% 30.17 in 10.0 mi SSW 15.0 mph 20.7 mph N/A   Clear
8:55 PM 32.9 °F 23.7 °F 16.7 °F 51% 30.17 in 10.0 mi SSW 12.7 mph 21.9 mph N/A   Clear
9:15 PM 32.5 °F 22.3 °F 16.7 °F 52% 30.15 in 10.0 mi SSW 15.0 mph 21.9 mph N/A   Clear
9:34 PM 32.5 °F 21.9 °F 16.7 °F 52% 30.15 in 10.0 mi SSW 16.1 mph - N/A   Clear
9:55 PM 32.4 °F 23.0 °F 16.5 °F 52% 30.15 in 10.0 mi SSW 12.7 mph 20.7 mph N/A   Clear
10:15 PM 32.5 °F 22.7 °F 16.7 °F 52% 30.14 in 10.0 mi SW 13.8 mph 19.6 mph N/A   Clear
10:34 PM 32.5 °F 22.3 °F 16.7 °F 52% 30.13 in 10.0 mi SW 15.0 mph 23.0 mph N/A   Clear
10:55 PM 32.9 °F 23.2 °F 17.1 °F 52% 30.12 in 10.0 mi SW 13.8 mph 20.7 mph N/A   Clear
11:15 PM 32.7 °F 21.8 °F 17.2 °F 53% 30.12 in 10.0 mi SW 17.3 mph 21.9 mph N/A   Clear
11:34 PM 32.4 °F 21.7 °F 17.6 °F 55% 30.13 in 10.0 mi SW 16.1 mph 23.0 mph N/A   Clear
11:55 PM 32.0 °F 23.0 °F 18.0 °F 56% 30.13 in 10.0 mi SW 11.5 mph 19.6 mph N/A   Clear